Regional Weather Roundup
Issued by NWS

Home | Current Version | Previous Version | Graphics & Text | Print | Product List | Glossary On
Versions: 1 2 3 4 5 6 7 8 9 10 11 12 13 14 15 16 17 18 19 20 21 22 23 24 25 26 27 28 29 30 31 32 33 34 35 36 37 38 39 40 41 42 43 44 45 46 47 48 49 50
000
ASUS43 KDTX 071201
RWRMI
MICHIGAN HOURLY REGIONAL WEATHER ROUNDUP
NATIONAL WEATHER SERVICE DETROIT/PONTIAC MI
800 AM EDT TUE JUL 07 2015

NOTE: "FAIR" INDICATES FEW OR NO CLOUDS BELOW 12,000 FEET WITH NO
SIGNIFICANT WEATHER AND/OR OBSTRUCTION TO VISIBILITY.

MIZ047>049-052>055-059>063-066>070-074>076-081>083-071300-
SOUTHEAST LOWER MICHIGAN

CITY           SKY/WX    TMP DP  RH WIND       PRES   REMARKS
ADRIAN         CLOUDY    74  71  91 SW9       29.88S
6HR MIN TEMP:  71; 6HR MAX TEMP:  74;

ALMA           CLOUDY    70  69  96 S5        29.82S
ANN ARBOR      CLOUDY    72  69  90 S8        29.87S FOG
BAD AXE        CLOUDY    73  67  81 SW5       29.82S
CARO           HVY RAIN  72  69  89 SW6       29.82S
DETROIT CITY   CLOUDY    75  69  81 SW10      29.86F HAZE
6HR MIN TEMP:  73; 6HR MAX TEMP:  75;

DETROIT        CLOUDY    75  70  84 S10       29.87S HAZE
6HR MIN TEMP:  73; 6HR MAX TEMP:  75;

FLINT          CLOUDY    73  69  87 S9        29.83F
6HR MIN TEMP:  72; 6HR MAX TEMP:  78; 6HR PCP:  0.36;

GROSSE ILE     CLOUDY    73  70  88 S9        29.86F FOG
HILLSDALE      DRIZZLE   75  74  98 SW12      29.89R
6HR MIN TEMP:  73; 6HR MAX TEMP:  75;

HOWELL         CLOUDY    72  69  92 CALM      29.85S

CITY           SKY/WX    TMP DP  RH WIND       PRES   REMARKS
JACKSON        LGT RAIN  73  70  90 SW18G24   29.87R
6HR MIN TEMP:  73; 6HR MAX TEMP:  75; 6HR PCP:  0.01;

LAMBERTVILLE   MOSUNNY   76  70  81 SW8       29.89S
6HR MIN TEMP:  74; 6HR MAX TEMP:  76;

LANSING        CLOUDY    71  69  93 S9        29.84S
6HR MIN TEMP:  71; 6HR MAX TEMP:  76; 6HR PCP:  0.14;

LAPEER         PTSUNNY   71  69  92 SW6       29.84F FOG
MASON          HVY RAIN  68  67  94 CALM      29.86R
MONROE         CLOUDY    75  71  86 SW7       29.87S FOG
MT. CLEMENS    PTSUNNY   75  69  82 SW9       29.83F HAZE
6HR MIN TEMP:  70; 6HR MAX TEMP:  75;

PONTIAC        CLOUDY    74  69  85 S8        29.85F HAZE
6HR MIN TEMP:  73; 6HR MAX TEMP:  74;

PORT HOPE        N/A     72  68  87 VRB5      29.79S
6HR MIN TEMP:  72; 6HR MAX TEMP:  74; 6HR PCP:  0.01;

PORT HURON     CLOUDY    72  68  88 S6        29.86S HAZE
TRI CITIES     CLOUDY    74  68  81 SW8       29.81F
6HR MIN TEMP:  73; 6HR MAX TEMP:  76; 6HR PCP: TRACE;

MIDLAND        LGT RAIN  72  69  93 W6        29.80S
TROY           CLOUDY    76  70  82 S7        29.87S
SAGINAW HB     CLOUDY    73  68  83 SW8       29.80S
$$
MIZ043>046-050>051-056>058-064>065-071>073-077>080-071300-
SOUTHWEST LOWER MICHIGAN

CITY           SKY/WX    TMP DP  RH WIND       PRES   REMARKS
BATTLE CREEK   LGT RAIN  72  69  90 SW8       29.87R
6HR MIN TEMP:  71; 6HR MAX TEMP:  77; 6HR PCP:  0.74;

BENTON HARBOR  CLOUDY    61  60  97 VRB6      29.88R FOG
6HR MIN TEMP:  61; 6HR MAX TEMP:  76; 6HR PCP:  0.32;

BIG RAPIDS     RAIN      57  55  91 N8G18     29.87S
6HR MIN TEMP:  57; 6HR MAX TEMP:  70; 6HR PCP:  0.22;

COLDWATER      LGT RAIN  70  69  97 SW6       29.88R
6HR MIN TEMP:  70; 6HR MAX TEMP:  75;

FREMONT        CLOUDY    58  56  95 N15G21    29.88R
HOLLAND        LGT RAIN  63  60  90 NW5       29.86R
6HR MIN TEMP:  62; 6HR MAX TEMP:  74; 6HR PCP: TRACE;

GRAND RAPIDS   CLOUDY    70  68  93 W13       29.83R
6HR MIN TEMP:  69; 6HR MAX TEMP:  77; 6HR PCP:  0.43;

IONIA          DRIZZLE   71  70  95 SW7       29.82S
KALAMAZOO      LGT RAIN  72  69  90 S9        29.86R
6HR MIN TEMP:  70; 6HR MAX TEMP:  77; 6HR PCP:  0.86;

LUDINGTON      CLOUDY    56  53  90 N7        29.93R
6HR MIN TEMP:  56; 6HR MAX TEMP:  63; 6HR PCP:  0.26;

MARSHALL       RAIN      71  69  95 CALM      29.86R
MOUNT PLEASANT HVY RAIN  61  59  92 NW7       29.84R
6HR MIN TEMP:  61; 6HR MAX TEMP:  71; 6HR PCP:  0.12;

MUSKEGON       CLOUDY    60  56  86 N16       29.89R
6HR MIN TEMP:  60; 6HR MAX TEMP:  69; 6HR PCP:  0.01;

SOUTH HAVEN    DRIZZLE   61  59  94 N6        29.87R
$$
MIZ016>042-071300-
NORTHERN LOWER MICHIGAN

CITY           SKY/WX    TMP DP  RH WIND       PRES   REMARKS
ALPENA         RAIN      60  58  92 VRB6      29.83R FOG
6HR MIN TEMP:  60; 6HR MAX TEMP:  74; 6HR PCP:  0.43;

BEAVER ISLAND  MOSUNNY   54  49  83 NW9       29.91R
6HR MIN TEMP:  53; 6HR MAX TEMP:  57;

BELLAIRE       CLOUDY    55  53  92 NW5       29.90R
6HR MIN TEMP:  55; 6HR MAX TEMP:  61;

CADILLAC       DRIZZLE   54  52  92 NW8       29.90R
CHARLEVOIX     CLOUDY    56  52  89 NW14      29.92R
6HR MIN TEMP:  55; 6HR MAX TEMP:  59;

FRANKFORT      CLOUDY    57  48  72 N7        29.93R
GAYLORD        RAIN      55  55 100 NW8       29.87R FOG
6HR MIN TEMP:  55; 6HR MAX TEMP:  70; 6HR PCP:  0.63;

GRAYLING       DRIZZLE   56  55  97 NW9       29.88R
6HR MIN TEMP:  56; 6HR MAX TEMP:  70;

HARBOR SPRINGS DRIZZLE   55  53  93 W5        29.88R
HOUGHTON LAKE  CLOUDY    58  56  93 NW9       29.87S FOG
6HR MIN TEMP:  58; 6HR MAX TEMP:  71; 6HR PCP:  0.17;

MANISTEE       CLOUDY    55  50  82 N5        29.93R
OSCODA         RAIN      65  63  96 N10       29.81R
PELLSTON       LGT RAIN  55  53  93 NW13      29.87R
6HR MIN TEMP:  55; 6HR MAX TEMP:  61; 6HR PCP:  0.04;

ROGERS CITY    RAIN      59  58  97 NW9       29.84R
TRAVERSE CITY  PTSUNNY   56  52  86 NW7       29.90R
6HR MIN TEMP:  55; 6HR MAX TEMP:  60; 6HR PCP:  0.53;

$$
MIZ007>008-015-071300-
EASTERN UPPER MICHIGAN

CITY           SKY/WX    TMP DP  RH WIND       PRES   REMARKS
KINROSS        CLOUDY    52  52 100 NW14      29.85R
6HR MIN TEMP:  52; 6HR MAX TEMP:  57;

MACKINAC ISLAN CLOUDY    54  54 100 NW12      29.85S
6HR MIN TEMP:  54; 6HR MAX TEMP:  60;

NEWBERRY       SUNNY     49  47  92 NW8G16    29.90R
6HR MIN TEMP:  47; 6HR MAX TEMP:  54;

S. S. MARIE    CLOUDY    55  52  89 NW7       29.84R
6HR MIN TEMP:  53; 6HR MAX TEMP:  55; 6HR PCP:  0.14;

$$
MIZ004>006-011>014-085-071300-
CENTRAL UPPER MICHIGAN

CITY           SKY/WX    TMP DP  RH WIND       PRES   REMARKS
MANISTIQUE     SUNNY     52  46  82 NW8       29.92R
6HR MIN TEMP:  47; 6HR MAX TEMP:  54;

ESCANABA       SUNNY     54  48  82 NW9G17    29.96R
6HR MIN TEMP:  48; 6HR MAX TEMP:  55;

MENOMINEE      SUNNY     54  46  76 N10       29.98R
6HR MIN TEMP:  52; 6HR MAX TEMP:  59;

SAWYER-GWINN   SUNNY     52  46  82 N12       29.97R
$$
MIZ001>003-009>011-084-071300-
WESTERN UPPER MICHIGAN

CITY           SKY/WX    TMP DP  RH WIND       PRES   REMARKS
IRON MOUNTAIN  PTSUNNY   53  48  83 NW10      29.99R
6HR MIN TEMP:  50; 6HR MAX TEMP:  56;

HOUGHTON       PTSUNNY   51  45  79 N12       30.02R
6HR MIN TEMP:  47; 6HR MAX TEMP:  52;

COPPER HARBOR    N/A     47  42  83 N14       30.00R
6HR MIN TEMP:  47; 6HR MAX TEMP:  51;

IRONWOOD       CLOUDY    54  48  82 N6        30.06R
6HR MIN TEMP:  52; 6HR MAX TEMP:  54;

$$

ABBREVIATIONS USED IN REMARKS
   TC - TEMPERATURE IN CELSIUS
  WCI - WIND CHILL INDEX
   HX - HEAT INDEX
  VSB - VISIBILITY




USA.gov is the U.S. government's official web portal to all federal, state and local government web resources and services.